Regional Weather Roundup
Issued by NWS

Home | Current Version | Previous Version | Graphics & Text | Print | Product List | Glossary On
Versions: 1 2 3 4 5 6 7 8 9 10 11 12 13 14 15 16 17 18 19 20 21 22 23 24 25 26 27 28 29 30 31 32 33 34 35 36 37 38 39 40 41 42 43 44 45 46 47 48 49 50
661
ASUS43 KTOP 010108
RWRKS

WEATHER ROUNDUP FOR KANSAS
NATIONAL WEATHER SERVICE GOODLAND KS
800 PM CDT FRI SEP 30 2016

NOTE:  "FAIR" INDICATES FEW OR NO CLOUDS BELOW 12,000 FEET WITH NO
SIGNIFICANT WEATHER AND/OR OBSTRUCTIONS TO VISIBILITY.

KSZ001>006-013>018-027>032-041>047-010200-
NORTHWEST KANSAS

CITY           SKY/WX    TMP DP  RH WIND       PRES   REMARKS
GOODLAND       CLEAR     65  46  50 E9        30.12F
HAYS           CLEAR     63  39  42 E7        30.13F
HILL CITY      CLEAR     58  49  72 E6        30.15R
RUSSELL        PTCLDY    62  47  57 SE10      30.12F
$$

KSZ061>065-074>080-084>089-010200-
SOUTHWEST KANSAS

CITY           SKY/WX    TMP DP  RH WIND       PRES   REMARKS
DODGE CITY     CLEAR     64  47  53 E7        30.12F
ELKHART          N/A     69  46  43 SE15        N/A
GARDEN CITY    CLOUDY    68  47  46 SE10      30.09F
GREAT BEND     CLEAR     64  43  45 SE8       30.13S
LIBERAL        CLOUDY    70  46  43 SE13      30.09F
PRATT          CLEAR     62  45  52 E5        30.14S
$$

KSZ066>073-081>083-090>101-010200-
SOUTHEAST KANSAS

CITY           SKY/WX    TMP DP  RH WIND       PRES   REMARKS
CHANUTE        CLOUDY    61  55  81 CALM      30.11F
COFFEYVILLE    PTCLDY    64  52  64 N3        30.11S
HUTCHINSON     CLOUDY    62  51  67 MISG      30.13F
MEDICINE LODGE   N/A     65  47  52 E7        30.12F
NEWTON         PTCLDY    64  50  60 CALM      30.14F
PARSONS        PTCLDY    58  54  86 CALM      30.12F
WICHITA INTL   MOCLDY    66  49  54 SE3       30.12F
WICHITA JABRA  PTCLDY    64  52  64 CALM      30.12F
WICHITA MCCONL PTCLDY    68  46  45 CALM      30.12F
WINFIELD       PTCLDY    65  54  67 CALM      30.13F
$$

KSZ007>012-019>026-033>040-048>060-102>105-010200-
NORTHEAST KANSAS

CITY           SKY/WX    TMP DP  RH WIND       PRES   REMARKS
CONCORDIA      PTCLDY    62  50  64 SE5       30.13F
EMPORIA        MOCLDY    62  51  67 NE3       30.12F
LAWRENCE       CLEAR     56  53  90 CALM      30.11F
MANHATTAN      MOCLDY    63  52  67 N3        30.12F
MARYSVILLE     CLOUDY    61  46  59 CALM      30.13F
OLATHE IND     CLEAR     60  50  69 N7        30.12F
OLATHE EXE     CLEAR     65  49  56 N3        30.12S
SALINA         PTCLDY    66  49  54 CALM      30.13F
TOPEKA BILLARD CLOUDY    61  54  77 CALM      30.11F
TOPEKA FORBES  CLOUDY    61  53  75 CALM      30.12F
$$




USA.gov is the U.S. government's official web portal to all federal, state and local government web resources and services.